Location: Cartersville (historical)
(42.9944°N, 93.0869°W)
Time: 15:00:21
(UTC+00:00)

Tiangong - Pass Details

Date: 13 October 2025
Orbit: 385 x 394 km, 41.5° (Epoch: 16 November)

Event Time Altitude Azimuth Distance (km) Brightness Sun altitude
Exits shadow 10:09:44 23° 118° (ESE) 920 0.2 -25.2°
Drops below altitude 10° 10:11:25 10° 95° (E) 1,460 1.7 -24.9°
Enters shadow 11:06:10 -72° 263° (W) 12,541 5.5 -15.0°
Maximum altitude 11:45:20 66° 176° (S) 446 -1.8 -7.8°
